N422 KMYF-KWVI

Flight info

Callsign N422
Flight time 1h 9m
Altitude 16000
Route MZB V23 LAX V299 VTU V25 RZS T257 BLANC V27 BSR V111 SNS
Aircraft BE60/L-SDFGRY/C

Departure

Time 2026-05-07 23:52
Airport Montgomery-Gibbs Executive Airport (KMYF)

Arrival

Time 2026-05-08 01:01
Airport Watsonville Municipal Airport (KWVI)
Time Latitude Longitude Altitude Speed Heading
2026-05-07 23:26 32.81382 -117.14454 420 ft 0 kts 246°
2026-05-07 23:45 32.81382 -117.14460 420 ft 2 kts 299°
2026-05-07 23:46 32.81401 -117.14445 421 ft 7 kts 66°
2026-05-07 23:46 32.81446 -117.14439 422 ft 10 kts 40°
2026-05-07 23:46 32.81474 -117.14359 423 ft 14 kts 65°
2026-05-07 23:46 32.81502 -117.14244 424 ft 14 kts 116°
2026-05-07 23:47 32.81451 -117.14123 419 ft 18 kts 113°
2026-05-07 23:47 32.81393 -117.13972 418 ft 22 kts 114°
2026-05-07 23:47 32.81331 -117.13812 421 ft 25 kts 114°
2026-05-07 23:47 32.81256 -117.13625 421 ft 14 kts 115°
2026-05-07 23:48 32.81214 -117.13512 421 ft 18 kts 114°
2026-05-07 23:48 32.81142 -117.13359 420 ft 24 kts 119°
2026-05-07 23:48 32.81141 -117.13228 420 ft 18 kts 58°
2026-05-07 23:48 32.81179 -117.13127 413 ft 7 kts
2026-05-07 23:49 32.81182 -117.13128 421 ft 0 kts 335°
2026-05-07 23:50 32.81198 -117.13145 417 ft 7 kts 335°
2026-05-07 23:51 32.81267 -117.13115 416 ft 14 kts
2026-05-07 23:51 32.81305 -117.13168 414 ft 0 kts 294°
2026-05-07 23:51 32.81383 -117.13370 418 ft 59 kts 294°
2026-05-07 23:51 32.81631 -117.13976 486 ft 93 kts 295°
2026-05-07 23:52 32.81951 -117.14695 760 ft 100 kts 297°
2026-05-07 23:52 32.82266 -117.15432 1097 ft 102 kts 292°
2026-05-07 23:52 32.82543 -117.16210 1401 ft 108 kts 291°
2026-05-07 23:52 32.82850 -117.17073 1709 ft 114 kts 291°
2026-05-07 23:53 32.83165 -117.17950 2062 ft 116 kts 291°
2026-05-07 23:53 32.83482 -117.18836 2426 ft 117 kts 292°
2026-05-07 23:53 32.83793 -117.19722 2769 ft 116 kts 292°
2026-05-07 23:53 32.84100 -117.20620 3062 ft 118 kts 292°
2026-05-07 23:54 32.84407 -117.21530 3368 ft 119 kts 291°
2026-05-07 23:54 32.84714 -117.22448 3681 ft 119 kts 292°
2026-05-07 23:54 32.85018 -117.23364 3992 ft 120 kts 291°
2026-05-07 23:54 32.85323 -117.24285 4297 ft 120 kts 291°
2026-05-07 23:55 32.85627 -117.25205 4597 ft 120 kts 291°
2026-05-07 23:55 32.86008 -117.26083 4892 ft 121 kts 315°
2026-05-07 23:55 32.86751 -117.26528 5187 ft 121 kts 346°
2026-05-07 23:55 32.87576 -117.26723 5480 ft 121 kts 347°
2026-05-07 23:56 32.88397 -117.26947 5774 ft 121 kts 344°
2026-05-07 23:56 32.89212 -117.27219 6068 ft 122 kts 342°
2026-05-07 23:56 32.90023 -117.27523 6356 ft 122 kts 341°
2026-05-07 23:56 32.90839 -117.27815 6639 ft 123 kts 349°
2026-05-07 23:57 32.91694 -117.27891 6924 ft 124 kts 358°
2026-05-07 23:57 32.92554 -117.27930 7203 ft 124 kts 343°
2026-05-07 23:57 32.93163 -117.28606 7471 ft 123 kts 299°
2026-05-07 23:57 32.93542 -117.29521 7760 ft 123 kts 295°
2026-05-07 23:58 32.93949 -117.30412 8027 ft 124 kts 316°
2026-05-07 23:58 32.94716 -117.30828 8290 ft 124 kts 353°
2026-05-07 23:58 32.95576 -117.30875 8565 ft 124 kts 359°
2026-05-07 23:58 32.96441 -117.30881 8834 ft 125 kts 359°
2026-05-07 23:59 32.97310 -117.30878 9116 ft 125 kts 360°
2026-05-07 23:59 32.98172 -117.30873 9383 ft 126 kts
2026-05-07 23:59 32.99046 -117.30884 9660 ft 126 kts 358°
2026-05-07 23:59 32.99882 -117.31185 9922 ft 127 kts 319°
2026-05-08 00:00 33.00337 -117.32063 10190 ft 129 kts 290°
2026-05-08 00:00 33.00602 -117.33096 10470 ft 129 kts 287°
2026-05-08 00:00 33.00843 -117.34128 10744 ft 130 kts 287°
2026-05-08 00:00 33.01076 -117.35171 11019 ft 131 kts 284°
2026-05-08 00:01 33.01197 -117.36250 11296 ft 132 kts 277°
2026-05-08 00:01 33.01335 -117.37326 11566 ft 132 kts 284°
2026-05-08 00:01 33.01457 -117.38400 11842 ft 133 kts 277°
2026-05-08 00:01 33.01522 -117.39515 12118 ft 134 kts 276°
2026-05-08 00:02 33.01581 -117.40621 12389 ft 134 kts 276°
2026-05-08 00:02 33.01638 -117.41734 12664 ft 135 kts 276°
2026-05-08 00:02 33.01695 -117.42852 12936 ft 136 kts 276°
2026-05-08 00:02 33.01753 -117.43959 13209 ft 136 kts 276°
2026-05-08 00:03 33.01824 -117.45083 13473 ft 136 kts 280°
2026-05-08 00:03 33.02052 -117.46182 13746 ft 135 kts 296°
2026-05-08 00:03 33.02493 -117.47156 14011 ft 133 kts 308°
2026-05-08 00:03 33.03064 -117.48019 14289 ft 133 kts 315°
2026-05-08 00:04 33.03693 -117.48801 14546 ft 132 kts 319°
2026-05-08 00:04 33.04361 -117.49552 14814 ft 132 kts 321°
2026-05-08 00:04 33.05058 -117.50299 14970 ft 142 kts 322°
2026-05-08 00:04 33.05853 -117.51124 14995 ft 160 kts 321°
2026-05-08 00:05 33.06857 -117.51806 15000 ft 171 kts 355°
2026-05-08 00:05 33.08060 -117.51612 15001 ft 182 kts 16°
2026-05-08 00:05 33.09310 -117.51151 14986 ft 193 kts 19°
2026-05-08 00:05 33.10589 -117.50620 14979 ft 201 kts 20°
2026-05-08 00:06 33.11936 -117.50033 14976 ft 206 kts 21°
2026-05-08 00:06 33.13277 -117.49436 14975 ft 210 kts 21°
2026-05-08 00:06 33.14673 -117.48809 14976 ft 213 kts 21°
2026-05-08 00:06 33.16078 -117.48217 14977 ft 215 kts 12°
2026-05-08 00:07 33.17561 -117.48379 14981 ft 219 kts 338°
2026-05-08 00:07 33.18726 -117.49544 14984 ft 225 kts 304°
2026-05-08 00:07 33.19251 -117.51309 14985 ft 229 kts 282°
2026-05-08 00:07 33.19472 -117.53194 14983 ft 230 kts 281°
2026-05-08 00:08 33.19826 -117.55057 14982 ft 230 kts 290°
2026-05-08 00:08 33.20429 -117.56820 14982 ft 229 kts 299°
2026-05-08 00:08 33.21238 -117.58447 14982 ft 228 kts 306°
2026-05-08 00:08 33.22189 -117.59958 14983 ft 227 kts 311°
2026-05-08 00:09 33.23228 -117.61385 14983 ft 227 kts 314°
2026-05-08 00:09 33.24314 -117.62751 14984 ft 227 kts 316°
2026-05-08 00:09 33.25430 -117.64091 14984 ft 227 kts 317°
2026-05-08 00:09 33.26556 -117.65409 14984 ft 227 kts 317°
2026-05-08 00:10 33.27689 -117.66722 14984 ft 227 kts 318°
2026-05-08 00:10 33.28827 -117.68033 14984 ft 227 kts 318°
2026-05-08 00:10 33.29962 -117.69341 14984 ft 227 kts 318°
2026-05-08 00:10 33.31100 -117.70651 14985 ft 227 kts 318°
2026-05-08 00:11 33.32238 -117.71963 14984 ft 227 kts 318°
2026-05-08 00:11 33.33375 -117.73275 14984 ft 227 kts 318°
2026-05-08 00:11 33.34126 -117.74142 14984 ft 227 kts 318°
2026-05-08 00:11 33.35261 -117.75454 14984 ft 227 kts 318°
2026-05-08 00:12 33.36397 -117.76766 14983 ft 227 kts 318°
2026-05-08 00:12 33.37535 -117.78081 14979 ft 227 kts 318°
2026-05-08 00:12 33.38670 -117.79393 14977 ft 227 kts 318°
2026-05-08 00:12 33.39805 -117.80707 14976 ft 227 kts 317°
2026-05-08 00:13 33.40939 -117.82020 14976 ft 227 kts 318°
2026-05-08 00:13 33.42074 -117.83334 14976 ft 227 kts 318°
2026-05-08 00:13 33.43209 -117.84647 14976 ft 227 kts 318°
2026-05-08 00:13 33.44342 -117.85962 14976 ft 227 kts 317°
2026-05-08 00:14 33.45476 -117.87277 14975 ft 227 kts 317°
2026-05-08 00:14 33.46610 -117.88593 14971 ft 227 kts 317°
2026-05-08 00:14 33.47746 -117.89911 14968 ft 227 kts 317°
2026-05-08 00:14 33.48881 -117.91229 14967 ft 227 kts 317°
2026-05-08 00:15 33.50016 -117.92546 14967 ft 227 kts 317°
2026-05-08 00:15 33.51149 -117.93861 14966 ft 227 kts 317°
2026-05-08 00:15 33.52284 -117.95180 14966 ft 227 kts 317°
2026-05-08 00:15 33.53417 -117.96496 14966 ft 227 kts 317°
2026-05-08 00:16 33.54548 -117.97810 14966 ft 227 kts 317°
2026-05-08 00:16 33.55679 -117.99126 14966 ft 227 kts 317°
2026-05-08 00:16 33.56809 -118.00442 14966 ft 227 kts 317°
2026-05-08 00:16 33.57957 -118.01778 14966 ft 227 kts 317°
2026-05-08 00:17 33.59088 -118.03096 14965 ft 227 kts 317°
2026-05-08 00:17 33.60219 -118.04414 14960 ft 227 kts 317°
2026-05-08 00:17 33.61353 -118.05737 14954 ft 227 kts 317°
2026-05-08 00:17 33.62488 -118.07061 14951 ft 227 kts 317°
2026-05-08 00:18 33.63620 -118.08382 14944 ft 228 kts 317°
2026-05-08 00:18 33.64756 -118.09709 14941 ft 228 kts 317°
2026-05-08 00:18 33.65890 -118.11033 14940 ft 227 kts 317°
2026-05-08 00:18 33.67023 -118.12356 14939 ft 227 kts 317°
2026-05-08 00:19 33.68156 -118.13679 14942 ft 227 kts 317°
2026-05-08 00:19 33.69272 -118.14983 14945 ft 227 kts 317°
2026-05-08 00:19 33.70416 -118.16321 14947 ft 227 kts 317°
2026-05-08 00:19 33.71529 -118.17623 14952 ft 226 kts 317°
2026-05-08 00:20 33.72670 -118.18959 14955 ft 226 kts 317°
2026-05-08 00:20 33.73800 -118.20281 14957 ft 227 kts 317°
2026-05-08 00:20 33.74928 -118.21601 14957 ft 227 kts 317°
2026-05-08 00:20 33.76053 -118.22921 14957 ft 226 kts 317°
2026-05-08 00:21 33.77183 -118.24244 14957 ft 227 kts 317°
2026-05-08 00:21 33.78312 -118.25565 14957 ft 227 kts 317°
2026-05-08 00:21 33.79383 -118.26823 14960 ft 227 kts 317°
2026-05-08 00:21 33.80314 -118.27915 14963 ft 227 kts 317°
2026-05-08 00:22 33.80949 -118.28659 14964 ft 227 kts 317°
2026-05-08 00:22 33.82014 -118.29911 14965 ft 228 kts 317°
2026-05-08 00:22 33.83149 -118.31242 14965 ft 228 kts 317°
2026-05-08 00:22 33.84285 -118.32577 14966 ft 228 kts 317°
2026-05-08 00:23 33.85417 -118.33908 14966 ft 227 kts 317°
2026-05-08 00:23 33.86546 -118.35236 14970 ft 227 kts 317°
2026-05-08 00:23 33.87671 -118.36561 14973 ft 226 kts 317°
2026-05-08 00:23 33.88793 -118.37882 14974 ft 226 kts 317°
2026-05-08 00:24 33.89914 -118.39201 14975 ft 225 kts 317°
2026-05-08 00:24 33.91036 -118.40522 14975 ft 225 kts 317°
2026-05-08 00:24 33.92156 -118.41842 14976 ft 225 kts 317°
2026-05-08 00:24 33.93190 -118.43262 14976 ft 227 kts 306°
2026-05-08 00:25 33.93874 -118.44974 14976 ft 228 kts 291°
2026-05-08 00:25 33.94407 -118.46773 14976 ft 228 kts 292°
2026-05-08 00:25 33.94981 -118.48555 14976 ft 228 kts 293°
2026-05-08 00:25 33.95562 -118.50331 14975 ft 228 kts 293°
2026-05-08 00:26 33.96142 -118.52111 14974 ft 228 kts 293°
2026-05-08 00:26 33.96718 -118.53889 14975 ft 228 kts 293°
2026-05-08 00:26 33.97291 -118.55672 14975 ft 228 kts 293°
2026-05-08 00:26 33.97862 -118.57457 14975 ft 228 kts 293°
2026-05-08 00:27 33.98431 -118.59242 14975 ft 228 kts 292°
2026-05-08 00:27 33.99001 -118.61028 14975 ft 228 kts 292°
2026-05-08 00:27 33.99568 -118.62811 14975 ft 228 kts 292°
2026-05-08 00:27 34.00134 -118.64593 14976 ft 228 kts 292°
2026-05-08 00:28 34.00701 -118.66380 14976 ft 228 kts 292°
2026-05-08 00:28 34.01267 -118.68161 14976 ft 228 kts 292°
2026-05-08 00:28 34.01833 -118.69945 14975 ft 228 kts 292°
2026-05-08 00:28 34.02397 -118.71725 14973 ft 228 kts 292°
2026-05-08 00:29 34.02962 -118.73510 14969 ft 228 kts 292°
2026-05-08 00:29 34.03526 -118.75294 14969 ft 228 kts 292°
2026-05-08 00:29 34.04091 -118.77079 14967 ft 228 kts 292°
2026-05-08 00:29 34.04612 -118.78885 14959 ft 228 kts 290°
2026-05-08 00:30 34.05092 -118.80698 14965 ft 227 kts 289°
2026-05-08 00:30 34.05562 -118.82516 14970 ft 228 kts 289°
2026-05-08 00:30 34.06038 -118.84342 14969 ft 228 kts 289°
2026-05-08 00:30 34.06517 -118.86167 14970 ft 229 kts 289°
2026-05-08 00:31 34.06997 -118.87997 14965 ft 229 kts 289°
2026-05-08 00:31 34.07481 -118.89822 14964 ft 228 kts 289°
2026-05-08 00:31 34.07964 -118.91641 14968 ft 228 kts 289°
2026-05-08 00:31 34.08450 -118.93463 14970 ft 228 kts 289°
2026-05-08 00:32 34.08933 -118.95281 14978 ft 228 kts 289°
2026-05-08 00:32 34.09417 -118.97100 14980 ft 228 kts 289°
2026-05-08 00:32 34.09895 -118.98896 14982 ft 228 kts 289°
2026-05-08 00:32 34.10379 -119.00716 14986 ft 228 kts 289°
2026-05-08 00:33 34.10864 -119.02536 14994 ft 228 kts 289°
2026-05-08 00:33 34.11370 -119.04350 14996 ft 228 kts 293°
2026-05-08 00:33 34.12104 -119.06035 14996 ft 227 kts 306°
2026-05-08 00:33 34.13031 -119.07574 14990 ft 227 kts 306°
2026-05-08 00:34 34.13926 -119.09183 14985 ft 228 kts 304°
2026-05-08 00:34 34.14776 -119.10764 14987 ft 227 kts 304°
2026-05-08 00:34 34.15645 -119.12383 14985 ft 227 kts 304°
2026-05-08 00:34 34.16506 -119.13981 14984 ft 227 kts 304°
2026-05-08 00:35 34.17363 -119.15556 14984 ft 227 kts 304°
2026-05-08 00:35 34.18232 -119.17147 14980 ft 227 kts 305°
2026-05-08 00:35 34.19114 -119.18757 14977 ft 227 kts 305°
2026-05-08 00:35 34.19986 -119.20343 14976 ft 227 kts 305°
2026-05-08 00:36 34.20857 -119.21927 14976 ft 227 kts 305°
2026-05-08 00:36 34.21719 -119.23495 14976 ft 227 kts 305°
2026-05-08 00:36 34.22602 -119.25103 14975 ft 227 kts 305°
2026-05-08 00:36 34.23473 -119.26690 14976 ft 227 kts 305°
2026-05-08 00:37 34.24344 -119.28279 14975 ft 227 kts 304°
2026-05-08 00:37 34.25213 -119.29866 14975 ft 227 kts 304°
2026-05-08 00:37 34.26085 -119.31455 14976 ft 227 kts 304°
2026-05-08 00:38 34.27827 -119.34634 14976 ft 227 kts 304°
2026-05-08 00:38 34.28696 -119.36224 14975 ft 227 kts 304°
2026-05-08 00:38 34.29566 -119.37811 14976 ft 227 kts 304°
2026-05-08 00:38 34.30437 -119.39400 14981 ft 227 kts 304°
2026-05-08 00:39 34.31308 -119.40991 14983 ft 227 kts 304°
2026-05-08 00:39 34.32179 -119.42582 14984 ft 227 kts 304°
2026-05-08 00:39 34.33046 -119.44172 14984 ft 227 kts 304°
2026-05-08 00:39 34.35231 -119.48176 14985 ft 227 kts 304°
2026-05-08 00:40 34.38704 -119.54548 14977 ft 227 kts 304°
2026-05-08 00:40 34.44164 -119.64581 14968 ft 227 kts 304°
2026-05-08 00:40 34.51111 -119.77374 14967 ft 227 kts 306°
2026-05-08 00:40 34.59691 -119.88504 14972 ft 227 kts 314°
2026-05-08 00:41 34.68186 -119.99802 14985 ft 227 kts 314°
2026-05-08 00:41 34.76745 -120.11103 14997 ft 227 kts 313°
2026-05-08 00:41 34.85265 -120.22412 15011 ft 227 kts 313°
2026-05-08 00:41 34.93781 -120.33754 15013 ft 227 kts 313°
2026-05-08 00:42 35.02287 -120.45120 15012 ft 227 kts 313°
2026-05-08 00:42 35.10787 -120.56512 15012 ft 227 kts 313°
2026-05-08 00:42 35.19281 -120.67938 15006 ft 227 kts 313°
2026-05-08 00:42 35.27698 -120.79431 15003 ft 227 kts 309°
2026-05-08 00:43 35.35316 -120.91798 15002 ft 227 kts 309°
2026-05-08 00:43 35.43111 -121.03973 15002 ft 227 kts 308°
2026-05-08 00:43 35.50874 -121.16217 15002 ft 227 kts 308°
2026-05-08 00:43 35.58631 -121.28478 15002 ft 227 kts 308°
2026-05-08 00:44 35.67098 -121.39802 15010 ft 225 kts 338°
2026-05-08 00:44 35.79355 -121.42149 15004 ft 226 kts 329°
2026-05-08 00:44 35.89848 -121.50300 15019 ft 226 kts 348°
2026-05-08 00:44 36.01627 -121.55532 15040 ft 227 kts 335°
2026-05-08 00:45 36.13245 -121.61653 15055 ft 227 kts 337°
2026-05-08 00:45 36.20426 -121.65130 15058 ft 227 kts 352°
2026-05-08 00:45 36.22003 -121.65061 14962 ft 226 kts
2026-05-08 00:45 36.23507 -121.64673 14559 ft 216 kts 13°
2026-05-08 00:46 36.24942 -121.64261 14145 ft 209 kts 12°
2026-05-08 00:46 36.26347 -121.63915 13718 ft 203 kts
2026-05-08 00:46 36.27727 -121.63642 13316 ft 199 kts
2026-05-08 00:46 36.29093 -121.63432 12901 ft 196 kts
2026-05-08 00:47 36.30441 -121.63266 12489 ft 194 kts
2026-05-08 00:47 36.31782 -121.63129 12075 ft 192 kts
2026-05-08 00:47 36.33108 -121.63007 11667 ft 190 kts
2026-05-08 00:47 36.34421 -121.62894 11267 ft 188 kts
2026-05-08 00:48 36.35720 -121.62788 10866 ft 186 kts
2026-05-08 00:48 36.37013 -121.62684 10460 ft 185 kts
2026-05-08 00:48 36.38326 -121.62580 10078 ft 198 kts
2026-05-08 00:48 36.39731 -121.62469 9926 ft 202 kts
2026-05-08 00:49 36.41125 -121.62358 9903 ft 199 kts
2026-05-08 00:49 36.42502 -121.62249 9896 ft 197 kts
2026-05-08 00:49 36.43860 -121.62141 9887 ft 195 kts
2026-05-08 00:49 36.45209 -121.62033 9882 ft 193 kts
2026-05-08 00:50 36.46543 -121.61925 9872 ft 192 kts
2026-05-08 00:50 36.47868 -121.61818 9898 ft 190 kts
2026-05-08 00:50 36.48740 -121.61746 9916 ft 189 kts
2026-05-08 00:50 36.50044 -121.61641 9931 ft 188 kts
2026-05-08 00:51 36.51349 -121.61535 9949 ft 187 kts
2026-05-08 00:51 36.52648 -121.61430 9977 ft 186 kts
2026-05-08 00:51 36.53938 -121.61326 10016 ft 185 kts
2026-05-08 00:51 36.55224 -121.61222 10052 ft 185 kts
2026-05-08 00:52 36.56502 -121.61118 10091 ft 184 kts
2026-05-08 00:52 36.57783 -121.61015 10100 ft 185 kts
2026-05-08 00:52 36.59074 -121.60912 10086 ft 187 kts
2026-05-08 00:52 36.60383 -121.60805 10050 ft 190 kts
2026-05-08 00:53 36.61705 -121.60698 10017 ft 191 kts
2026-05-08 00:53 36.63038 -121.60590 9973 ft 193 kts
2026-05-08 00:53 36.64380 -121.60481 9932 ft 194 kts
2026-05-08 00:53 36.65724 -121.60399 9897 ft 193 kts 357°
2026-05-08 00:54 36.67023 -121.60767 9882 ft 192 kts 334°
2026-05-08 00:54 36.68195 -121.61602 9641 ft 200 kts 330°
2026-05-08 00:54 36.69432 -121.62442 9122 ft 203 kts 332°
2026-05-08 00:54 36.70683 -121.63274 8620 ft 204 kts 332°
2026-05-08 00:55 36.71931 -121.64111 8122 ft 204 kts 331°
2026-05-08 00:55 36.73174 -121.64954 7626 ft 203 kts 331°
2026-05-08 00:55 36.74407 -121.65795 7133 ft 201 kts 330°
2026-05-08 00:55 36.75629 -121.66632 6648 ft 200 kts 331°
2026-05-08 00:56 36.76843 -121.67463 6160 ft 198 kts 330°
2026-05-08 00:56 36.78049 -121.68287 5661 ft 198 kts 331°
2026-05-08 00:56 36.79254 -121.69116 5096 ft 197 kts 330°
2026-05-08 00:56 36.80452 -121.69940 4534 ft 196 kts 330°
2026-05-08 00:57 36.81639 -121.70749 3982 ft 194 kts 330°
2026-05-08 00:57 36.82811 -121.71557 3438 ft 191 kts 331°
2026-05-08 00:57 36.83979 -121.72363 2903 ft 191 kts 330°
2026-05-08 00:57 36.85137 -121.73154 2369 ft 189 kts 330°
2026-05-08 00:58 36.86286 -121.73947 1831 ft 189 kts 330°
2026-05-08 00:58 36.87433 -121.74735 1378 ft 184 kts 330°
2026-05-08 00:58 36.88485 -121.75454 1331 ft 162 kts 330°
2026-05-08 00:58 36.89420 -121.76100 1307 ft 146 kts 332°
2026-05-08 00:59 36.90275 -121.76656 1323 ft 130 kts 343°
2026-05-08 00:59 36.91133 -121.76787 1319 ft 124 kts
2026-05-08 00:59 36.91984 -121.76716 1263 ft 121 kts
2026-05-08 00:59 36.92775 -121.76617 1108 ft 112 kts
2026-05-08 01:00 36.93526 -121.76558 966 ft 107 kts 356°
2026-05-08 01:00 36.94132 -121.76988 764 ft 107 kts 307°
2026-05-08 01:00 36.94361 -121.77905 505 ft 111 kts 257°
2026-05-08 01:00 36.94026 -121.78687 260 ft 98 kts 213°
2026-05-08 01:01 36.93499 -121.79116 156 ft 82 kts 210°
2026-05-08 01:01 36.93111 -121.79414 150 ft 42 kts 211°
2026-05-08 01:01 36.92959 -121.79533 150 ft 18 kts 211°
2026-05-08 01:01 36.92917 -121.79471 151 ft 15 kts 76°
2026-05-08 01:02 36.92994 -121.79389 151 ft 13 kts 31°
2026-05-08 01:02 36.93086 -121.79319 151 ft 19 kts 31°
2026-05-08 01:02 36.93208 -121.79220 151 ft 15 kts 31°
2026-05-08 01:02 36.93319 -121.79132 151 ft 12 kts 32°
2026-05-08 01:03 36.93373 -121.79089 151 ft 13 kts 32°
2026-05-08 01:03 36.93465 -121.79015 151 ft 16 kts 31°
2026-05-08 01:03 36.93546 -121.78944 151 ft 9 kts 96°
2026-05-08 01:03 36.93500 -121.78853 151 ft 11 kts 122°
2026-05-08 01:04 36.93458 -121.78781 151 ft 4 kts 91°
2026-05-08 01:04 36.93458 -121.78775 151 ft 0 kts 87°